Data Keluaran Macau 2024

Data Keluaran Macau 2024, Data Toto Macau Terbaru, Pengeluaran Macau Pools, Result angka toto macau tercepat.

Data keluaran Macau ini tentunya akan sangat bermanfaat bagi pemain togel darat serta toto online, sebab dengan rincian data tersebut, Data macau 2024 ini bisa di prediksi lebih mendetail, sehingga poin kemenangan makin kuat.

Menggunakan data macau 2024 anda dapat melakukan riset pada hasil live togel yang akan datang, nah inilah kenapa data toto macau ini sangat berguna bagi anda para pemain.

Penayangan pengeluaran macau merupakan landasan utama kami untuk sobat dalam mencari hasil result totomacau pools. Jika anda mencari data macau terlengkap, inilah tempatnya.

Halaman ini ialah situs yang mengacu pada informasi Paito Toto Macau, Di bawah telah kami sediakan data rekap terbaru pengeluaran macau pools 2024:

Data Keluaran Macau 2024

Data Keluaran Macau 2024

Data Keluaran Macau 2024

PUTARAN P1 P2 P3 P4 P5 P6
Hari/Tanggal 13.00 16.00 19.00 22.00 23.00 00.01
25/02/2024 9976
24/02/2024 8976 9981 5230 9626 4051 1159
23/02/2024 0912 8323 4545 8637 0937 9376
22/02/2024 4291 6740 5249 9724 6521 8985
21/02/2024 5427 1727 2099 0215 1629 4305
20/02/2024 6085 6526 9213 9434 7449 9215
19/02/2024 4540 6294 7027 5038 6301 8529
18/02/2024 6893 2788 5301 2944 4621 8440
17/02/2024 7874 5991 5451 5437 1876 4235
16/02/2024 1822 8732 5197 3431 3561 3466
15/02/2024 4477 6717 2132 8439 3077 5796
14/02/2024 3941 2923 1137 5692 7889 4281
13/02/2024 0869 2487 5045 3476 2899 5559
12/02/2024 1790 0441 8659 5726 0948 9436
11/02/2024 3247 9501 7129 9408 6745 0949
10/02/2024 8365 6912 3958 5168 3489 9920
09/02/2024 4239 6373 1455 4892 5773 2411
08/02/2024 5175 9793 2380 3663 4067 8054
07/02/2024 1279 3337 3123 7937 4062 4058
06/02/2024 6481 3544 1460 8631 5410 0590
05/02/2024 4963 4634 1222 4370 7866 5077
04/02/2024 3183 2187 6917 0484 9400 5243
03/02/2024 4819 4909 0141 3771 3270 6794
02/02/2024 3348 7638 6130 5859 2967 4959
01/02/2024 6136 1225 5058 7931 3462 2801
31/01/2024 2579 0361 .3297 3490 5841 7476
30/01/2024 5241 2316 0877 1080 6314 1261
29/01/2024 5639 2385 4715 7780 5456 0001
28/01/2024 4964 1207 9467 6002 4185 4570
27/01/2024 8397 9338 5908 1498 0922 3711
26/01/2024 0687 9008 2131 4959 2516 8734
25/01/2024 4905 9437 0300 9267 1741 8294
24/01/2024 4858 3447 1070 0005 0882 2560
23/01/2024 2195 1535 4774 8412 0778 4679
22/01/2024 0240 6132 8604 4581 2677 7726
21/01/2024 8624 9830 8372 2717 2511 2134
20/01/2024 0682 2564 9082 5561 9722 4235
19/01/2024 4118 8575 5257 0187 7003 9118
18/01/2024 3256 5273 6933 2616 3833 9551
17/01/2024 5051 0913 7572 0134 0308 1311
16/01/2024 5009 7863 7363 5496 5717 6434
15/01/2024 1112 0433 4353 4170 2463 7029
14/01/2024 0415 2458 1968 7533 2388 6782
13/01/2024 0726 4589 0197 8115 3509 1001
12/01/2024 1043 6861 7290 5938 2487 7216
11/01/2024 2491 3458 7082 2781 4597 4015
10/01/2024 7965 1502 5105 8297 6625 7175
09/01/2024 5409 5754 1319 3923 6135 9616
08/01/2024 1117 1907 1531 5495 0677 9916
07/01/2024 4837 4412 3707 0057 5531 1563
06/01/2024 6781 8775 2070 2316 1289 6957
05/01/2024 0990 6467 4547 8090 7724 4761
04/01/2024 5098 6856 0282 1968 5468 5922
03/01/2024 4754 1119 0629 3180 2128 2193
02/01/2024 5298 2734 5527 2112 8007 2381
01/01/2024 6025 6102 3926 4038 7231 4107

Data Macau 2023

PUTARAN P1 P2 P3 P4 P5 P6
Hari/Tanggal 13.00 16.00 19.00 22.00 23.00 00.01
31/12/2023 9808 9312 1241 3010 8225 4450
30/12/2023 4466 3034 9843 1032 0343 9404
29/12/2023 3575 0306 8849 8770 6062 9836
28/12/2023 5154 6311 1534 6643 6947 2181
27/12/2023 7534 1083 0129 4454 3750 8753
26/12/2023 3083 4255 6046 3983 7896 9793
25/12/2023 7693 0344 2033 0746 0645 0645
24/12/2023 0698 2777 7473 4876 7171 0309
23/12/2023 1460 0854 3410 6902 7249 8333
22/12/2023 5605 9011 2227 4857 8951 1330
21/12/2023 4634 2105 8592 7737 2143 1222
20/12/2023 2177 1646 1672 8180 2396 1444
19/12/2023 0450 9358 3480 8003 0181 1676
18/12/2023 3703 2599 4765 4491 9693 2057
17/12/2023 0640 2061 9416 0675 1092 8898
16/12/2023 0005 4611 8286 0171 7706 7700
14/12/2023 6876 5783 1608 8123 9851 2801
14/12/2023 7401 8130 5269 4572 0815 8873
13/12/2023 0509 0272 5710 5475 1854 6359
12/12/2023 8290 3627 2087 3566 1924 1555
11/12/2023 1446 1680 2174 0727 7232 6279
10/12/2023 3027 0665 4925 2608 2457 1441
09/12/2023 2315 2621 8168 6026 5468 2277
08/12/2023 8482 5105 9528 5596 2233 6038
07/12/2023 2476 9183 2555 1587 6275 0417
06/12/2023 0305 6939 5763 9703 3105 6110
05/12/2023 2490 1310 4849 3047 0252 1819
04/12/2023 3360 3499 6954 2263 1227 6624
03/12/2023 4761 8007 7243 2812 9195 0008
02/12/2023 0860 9260 7428 3161 6267 7681
01/12/2023 0617 5252 2408 1678 6496 6400

Data Keluaran Macau 2024

Data keluaran macau 2024 merupakan informasi hasil yang valid dan terpercaya karena bersumber dari live draw macau hari ini. Situs resmi togel macau pools saat ini tidak dapat di akses melalui jaringan indonesia, Oleh itu website ini menjadi andalan utama alternatif dalam menemukan Data Toto Macau 2024 terbaru.

Data pengeluaran macau secara berkala juga akan terupdate dengan sangat akurat, juga pemberian informasi tentang pemutaran keluaran macau. Hasil result toto macau di atas yang di salin dengan akurat akan membantu anda dalam mengetahui pengeluaran macau malam ini.

Toto macau pools adalah situs penyiaran pengeluaran macau pools tercepat, Data Keluaran Macau 2024 terbaru terpercaya. Sekianlah untuk ulasan kali ini semoga data toto macau yang telah kami sajikan dapat bermanfaat buat anda semua.

Incoming search terms:

  • Data pengeluaran macau
Updated: 25 Februari 2024 — 1:31 pm

Tinggalkan Balasan

Alamat email Anda tidak akan dipublikasikan. Ruas yang wajib ditandai *